Time,TemperatureF,DewpointF,PressureIn,WindDirection,WindDirectionDegrees,WindSpeedMPH,WindSpeedGustMPH,Humidity,HourlyPrecipIn,Conditions,Clouds,dailyrainin,SoftwareType,DateUTC
2013-03-23 00:04:00,56.8,49.3,29.88,SE,136,2.2,3.1,76,0.00,,SCT008,0.00,VWS V14.01,2013-03-23 07:04:00,
2013-03-23 00:10:00,57.0,49.5,29.88,SE,142,4.9,5.4,76,0.00,,SCT008,0.00,VWS V14.01,2013-03-23 07:10:00,
2013-03-23 00:15:00,57.2,49.7,29.88,SE,125,2.7,4.0,76,0.00,,SCT008,0.00,VWS V14.01,2013-03-23 07:15:00,
2013-03-23 00:21:00,57.2,49.7,29.88,SE,142,4.0,4.9,76,0.00,,SCT008,0.00,VWS V14.01,2013-03-23 07:21:00,
2013-03-23 00:26:00,57.2,49.3,29.88,ESE,118,2.7,3.1,75,0.00,,SCT008,0.00,VWS V14.01,2013-03-23 07:26:00,
2013-03-23 00:32:00,57.0,49.2,29.88,SE,142,0.0,0.0,75,0.00,,SCT008,0.00,VWS V14.01,2013-03-23 07:32:00,
2013-03-23 00:38:00,56.8,49.0,29.88,SE,142,0.0,3.1,75,0.00,,OVC010,0.00,VWS V14.01,2013-03-23 07:38:00,
2013-03-23 00:43:00,56.6,48.8,29.88,ESE,114,0.0,0.0,75,0.00,,OVC010,0.00,VWS V14.01,2013-03-23 07:43:00,
2013-03-23 00:49:00,56.6,49.2,29.88,SE,130,0.0,2.2,76,0.00,,OVC010,0.00,VWS V14.01,2013-03-23 07:49:00,
2013-03-23 00:55:00,56.6,49.2,29.88,East,97,0.0,2.7,76,0.00,,OVC010,0.00,VWS V14.01,2013-03-23 07:55:00,
2013-03-23 01:00:00,56.6,49.5,29.88,SE,126,3.6,3.6,77,0.00,,OVC010,0.00,VWS V14.01,2013-03-23 08:00:00,
2013-03-23 01:06:00,56.6,49.5,29.88,East,90,4.0,4.0,77,0.00,,OVC010,0.00,VWS V14.01,2013-03-23 08:06:00,
2013-03-23 01:11:00,56.8,49.7,29.88,East,83,2.2,4.0,77,0.00,,OVC010,0.00,VWS V14.01,2013-03-23 08:11:00,
2013-03-23 01:17:00,56.6,49.5,29.88,East,80,3.6,3.6,77,0.00,,OVC010,0.00,VWS V14.01,2013-03-23 08:17:00,
2013-03-23 01:22:00,56.8,49.7,29.88,East,85,0.0,0.0,77,0.00,,OVC010,0.00,VWS V14.01,2013-03-23 08:22:00,
2013-03-23 01:28:00,56.8,49.7,29.88,East,87,0.0,0.0,77,0.00,,OVC010,0.00,VWS V14.01,2013-03-23 08:28:00,
2013-03-23 01:34:00,56.8,49.7,29.88,ENE,76,0.0,3.1,77,0.00,,OVC010,0.00,VWS V14.01,2013-03-23 08:34:00,
2013-03-23 01:39:00,56.8,49.7,29.88,ESE,104,0.0,0.0,77,0.00,,OVC010,0.00,VWS V14.01,2013-03-23 08:39:00,
2013-03-23 01:45:00,56.8,49.7,29.88,ENE,72,0.0,0.0,77,0.00,,OVC010,0.00,VWS V14.01,2013-03-23 08:45:00,
2013-03-23 01:50:00,56.8,49.7,29.88,ESE,107,0.0,0.0,77,0.00,,OVC010,0.00,VWS V14.01,2013-03-23 08:50:00,
2013-03-23 01:56:00,57.0,49.5,29.88,ESE,123,0.0,3.1,76,0.00,,OVC010,0.00,VWS V14.01,2013-03-23 08:56:00,
2013-03-23 02:02:00,57.0,49.5,29.88,East,79,2.7,5.4,76,0.00,,OVC010,0.00,VWS V14.01,2013-03-23 09:02:00,
2013-03-23 02:07:00,56.8,49.0,29.88,ENE,76,0.0,0.0,75,0.00,,OVC010,0.00,VWS V14.01,2013-03-23 09:07:00,
2013-03-23 02:13:00,56.8,49.0,29.88,ESE,119,2.2,2.2,75,0.00,,OVC010,0.00,VWS V14.01,2013-03-23 09:13:00,
2013-03-23 02:18:00,56.8,48.6,29.88,ESE,122,0.0,0.0,74,0.00,,OVC010,0.00,VWS V14.01,2013-03-23 09:18:00,
2013-03-23 02:24:00,56.8,48.6,29.88,ESE,122,0.0,0.0,74,0.00,,OVC010,0.00,VWS V14.01,2013-03-23 09:24:00,
2013-03-23 02:29:00,56.8,48.6,29.88,East,85,2.2,3.1,74,0.00,,OVC010,0.00,VWS V14.01,2013-03-23 09:29:00,
2013-03-23 02:34:00,56.6,48.1,29.88,ESE,108,0.0,0.0,73,0.00,,OVC010,0.00,VWS V14.01,2013-03-23 09:34:00,
2013-03-23 02:40:00,56.5,47.9,29.88,East,100,0.0,0.0,73,0.00,,OVC012,0.00,VWS V14.01,2013-03-23 09:40:00,
2013-03-23 02:45:00,56.5,47.9,29.88,East,100,0.0,0.0,73,0.00,,OVC012,0.00,VWS V14.01,2013-03-23 09:45:00,
2013-03-23 02:51:00,56.5,47.9,29.88,East,100,0.0,0.0,73,0.00,,OVC012,0.00,VWS V14.01,2013-03-23 09:51:00,
2013-03-23 02:56:00,56.5,47.9,29.88,East,100,0.0,0.0,73,0.00,,OVC012,0.00,VWS V14.01,2013-03-23 09:56:00,
2013-03-23 03:02:00,56.5,47.9,29.88,East,100,0.0,0.0,73,0.00,,OVC012,0.00,VWS V14.01,2013-03-23 10:02:00,
2013-03-23 03:08:00,56.5,47.9,29.85,ENE,76,4.9,4.9,73,0.00,,OVC012,0.00,VWS V14.01,2013-03-23 10:08:00,
2013-03-23 03:13:00,56.5,47.9,29.85,ENE,69,0.0,3.1,73,0.00,,OVC012,0.00,VWS V14.01,2013-03-23 10:13:00,
2013-03-23 03:19:00,56.5,48.3,29.88,ENE,58,0.0,0.0,74,0.00,,OVC012,0.00,VWS V14.01,2013-03-23 10:19:00,
2013-03-23 03:24:00,56.6,48.5,29.88,ENE,74,2.2,3.6,74,0.00,,OVC012,0.00,VWS V14.01,2013-03-23 10:24:00,
2013-03-23 03:30:00,56.6,48.5,29.88,ENE,76,0.0,2.7,74,0.00,,OVC012,0.00,VWS V14.01,2013-03-23 10:30:00,
2013-03-23 03:36:00,56.6,48.5,29.88,ENE,76,0.0,0.0,74,0.00,,BKN014,0.00,VWS V14.01,2013-03-23 10:36:00,
2013-03-23 03:41:00,56.6,48.5,29.88,East,84,3.6,3.6,74,0.00,,BKN014,0.00,VWS V14.01,2013-03-23 10:41:00,
2013-03-23 03:47:00,56.6,48.1,29.88,East,83,2.2,3.6,73,0.00,,BKN014,0.00,VWS V14.01,2013-03-23 10:47:00,
2013-03-23 03:52:00,56.6,48.1,29.88,East,95,0.0,4.0,73,0.00,,OVC016,0.00,VWS V14.01,2013-03-23 10:52:00,
2013-03-23 03:57:00,56.6,48.1,29.88,ENE,69,2.2,2.7,73,0.00,,OVC016,0.00,VWS V14.01,2013-03-23 10:57:00,
2013-03-23 04:02:00,56.6,48.1,29.88,ENE,71,0.0,4.0,73,0.00,,OVC016,0.00,VWS V14.01,2013-03-23 11:02:00,
2013-03-23 04:08:00,56.6,48.1,29.88,ENE,76,2.7,3.1,73,0.00,,OVC016,0.00,VWS V14.01,2013-03-23 11:08:00,
2013-03-23 04:14:00,56.8,48.3,29.88,ENE,77,2.2,4.0,73,0.00,,OVC016,0.00,VWS V14.01,2013-03-23 11:14:00,
2013-03-23 04:20:00,56.8,48.3,29.88,ENE,67,0.0,0.0,73,0.00,,OVC016,0.00,VWS V14.01,2013-03-23 11:20:00,
2013-03-23 04:26:00,56.6,48.1,29.88,ENE,64,3.1,3.6,73,0.00,,OVC016,0.00,VWS V14.01,2013-03-23 11:26:00,
2013-03-23 04:31:00,56.5,47.9,29.88,East,83,0.0,0.0,73,0.00,,OVC016,0.00,VWS V14.01,2013-03-23 11:31:00,
2013-03-23 04:37:00,56.5,47.6,29.88,East,83,0.0,0.0,72,0.00,,OVC016,0.00,VWS V14.01,2013-03-23 11:37:00,
2013-03-23 04:42:00,56.3,47.4,29.88,NE,34,3.6,4.0,72,0.00,,OVC016,0.00,VWS V14.01,2013-03-23 11:42:00,
2013-03-23 04:47:00,56.1,47.2,29.88,ENE,63,0.0,0.0,72,0.00,,OVC016,0.00,VWS V14.01,2013-03-23 11:47:00,
2013-03-23 04:52:00,55.9,47.0,29.88,ENE,63,0.0,0.0,72,0.00,,OVC016,0.00,VWS V14.01,2013-03-23 11:52:00,
2013-03-23 04:58:00,55.7,46.9,29.88,ENE,63,0.0,3.1,72,0.00,,OVC016,0.00,VWS V14.01,2013-03-23 11:58:00,
2013-03-23 05:03:00,55.6,46.7,29.88,ENE,63,0.0,0.0,72,0.00,,OVC016,0.00,VWS V14.01,2013-03-23 12:03:00,
2013-03-23 05:09:00,55.4,46.5,29.88,ENE,63,0.0,0.0,72,0.00,,OVC016,0.00,VWS V14.01,2013-03-23 12:09:00,
2013-03-23 05:15:00,55.2,46.3,29.88,ENE,62,2.2,2.7,72,0.00,,OVC016,0.00,VWS V14.01,2013-03-23 12:15:00,
2013-03-23 05:20:00,55.4,46.5,29.88,ENE,77,2.2,3.1,72,0.00,,OVC016,0.00,VWS V14.01,2013-03-23 12:20:00,
2013-03-23 05:26:00,55.4,46.5,29.88,ENE,58,2.2,3.6,72,0.00,,OVC016,0.00,VWS V14.01,2013-03-23 12:26:00,
2013-03-23 05:31:00,55.4,46.5,29.88,ENE,69,2.7,4.9,72,0.00,,OVC016,0.00,VWS V14.01,2013-03-23 12:31:00,
2013-03-23 05:37:00,55.4,46.5,29.88,East,80,2.7,3.6,72,0.00,,BKN018,0.00,VWS V14.01,2013-03-23 12:37:00,
2013-03-23 05:42:00,55.4,46.5,29.88,ENE,77,5.8,5.8,72,0.00,,BKN018,0.00,VWS V14.01,2013-03-23 12:42:00,
2013-03-23 05:48:00,55.4,46.5,29.88,ENE,71,4.0,4.9,72,0.00,,BKN018,0.00,VWS V14.01,2013-03-23 12:48:00,
2013-03-23 05:53:00,55.2,46.0,29.88,ENE,63,3.1,3.6,71,0.00,,BKN018,0.00,VWS V14.01,2013-03-23 12:53:00,
2013-03-23 05:59:00,55.2,46.0,29.88,ENE,76,0.0,3.6,71,0.00,,BKN018,0.00,VWS V14.01,2013-03-23 12:59:00,
2013-03-23 06:05:00,54.8,45.6,29.88,NE,56,3.1,4.0,71,0.00,,BKN018,0.00,VWS V14.01,2013-03-23 13:05:00,
2013-03-23 06:10:00,54.8,45.6,29.88,ENE,63,2.7,4.9,71,0.00,,BKN018,0.00,VWS V14.01,2013-03-23 13:10:00,
2013-03-23 06:17:00,54.7,45.5,29.88,ENE,77,3.1,3.1,71,0.00,,BKN018,0.00,VWS V14.01,2013-03-23 13:17:00,
2013-03-23 06:22:00,54.7,45.5,29.91,NE,52,4.5,4.5,71,0.00,,BKN018,0.00,VWS V14.01,2013-03-23 13:22:00,
2013-03-23 06:28:00,54.5,45.3,29.91,NE,54,0.0,4.0,71,0.00,,BKN018,0.00,VWS V14.01,2013-03-23 13:28:00,
2013-03-23 06:34:00,54.3,45.1,29.91,East,81,0.0,4.9,71,0.00,,BKN018,0.00,VWS V14.01,2013-03-23 13:34:00,
2013-03-23 06:40:00,54.3,45.1,29.91,ENE,77,0.0,3.1,71,0.00,,BKN018,0.00,VWS V14.01,2013-03-23 13:40:00,
2013-03-23 06:46:00,54.1,44.9,29.91,East,98,0.0,2.2,71,0.00,,BKN018,0.00,VWS V14.01,2013-03-23 13:46:00,
2013-03-23 06:52:00,54.1,44.9,29.91,NE,56,3.6,5.4,71,0.00,,BKN018,0.00,VWS V14.01,2013-03-23 13:52:00,
2013-03-23 06:58:00,53.9,44.4,29.91,ENE,63,3.6,4.0,70,0.00,,BKN018,0.00,VWS V14.01,2013-03-23 13:58:00,
2013-03-23 07:04:00,53.9,44.4,29.91,ENE,67,2.2,3.1,70,0.00,,BKN018,0.00,VWS V14.01,2013-03-23 14:04:00,
2013-03-23 07:10:00,53.8,44.2,29.91,SE,130,2.7,2.7,70,0.00,,BKN018,0.00,VWS V14.01,2013-03-23 14:10:00,
2013-03-23 07:15:00,53.9,44.4,29.91,ENE,69,0.0,3.6,70,0.00,,BKN018,0.00,VWS V14.01,2013-03-23 14:15:00,
2013-03-23 07:21:00,53.9,44.4,29.91,ENE,69,0.0,0.0,70,0.00,,BKN018,0.00,VWS V14.01,2013-03-23 14:21:00,
2013-03-23 07:26:00,53.9,44.4,29.91,ENE,69,0.0,0.0,70,0.00,,BKN018,0.00,VWS V14.01,2013-03-23 14:26:00,
2013-03-23 07:31:00,54.1,44.6,29.91,East,80,0.0,2.2,70,0.00,,BKN018,0.00,VWS V14.01,2013-03-23 14:31:00,
2013-03-23 07:36:00,54.3,44.7,29.94,East,80,0.0,0.0,70,0.00,,BKN018,0.00,VWS V14.01,2013-03-23 14:36:00,
2013-03-23 07:42:00,54.7,45.5,29.94,East,79,0.0,0.0,71,0.00,,BKN018,0.00,VWS V14.01,2013-03-23 14:42:00,
2013-03-23 07:47:00,55.0,45.8,29.94,ENE,75,3.1,3.6,71,0.00,,BKN018,0.00,VWS V14.01,2013-03-23 14:47:00,
2013-03-23 07:52:00,55.4,45.8,29.94,NE,39,5.4,5.4,70,0.00,,BKN018,0.00,VWS V14.01,2013-03-23 14:52:00,
2013-03-23 07:57:00,55.7,46.5,29.94,ENE,59,3.6,3.6,71,0.00,,BKN018,0.00,VWS V14.01,2013-03-23 14:57:00,
2013-03-23 08:02:00,55.9,46.7,29.94,NE,52,0.0,0.0,71,0.00,,BKN018,0.00,VWS V14.01,2013-03-23 15:02:00,
2013-03-23 08:08:00,56.5,46.8,29.94,East,82,0.0,3.6,70,0.00,,BKN018,0.00,VWS V14.01,2013-03-23 15:08:00,
2013-03-23 08:14:00,56.6,47.0,29.94,ENE,67,4.0,4.0,70,0.00,,BKN018,0.00,VWS V14.01,2013-03-23 15:14:00,
2013-03-23 08:20:00,57.0,46.9,29.94,NE,52,3.6,4.9,69,0.00,,BKN018,0.00,VWS V14.01,2013-03-23 15:20:00,
2013-03-23 08:25:00,57.2,47.1,29.94,ENE,76,4.0,6.3,69,0.00,,BKN018,0.00,VWS V14.01,2013-03-23 15:25:00,
2013-03-23 08:31:00,57.4,45.7,29.94,East,86,5.4,5.4,65,0.00,,BKN018,0.00,VWS V14.01,2013-03-23 15:31:00,
2013-03-23 08:37:00,57.9,45.8,29.94,East,89,0.0,3.1,64,0.00,,BKN016,0.00,VWS V14.01,2013-03-23 15:37:00,
2013-03-23 08:42:00,58.1,44.3,29.94,East,79,5.8,6.3,60,0.00,,BKN016,0.00,VWS V14.01,2013-03-23 15:42:00,
2013-03-23 08:47:00,58.3,42.2,29.94,ESE,116,3.6,5.4,55,0.00,,BKN016,0.00,VWS V14.01,2013-03-23 15:47:00,
2013-03-23 08:53:00,58.4,41.4,29.94,ENE,69,0.0,5.8,53,0.00,,BKN016,0.00,VWS V14.01,2013-03-23 15:53:00,
2013-03-23 08:58:00,58.8,41.2,29.94,East,88,3.6,3.6,52,0.00,,BKN016,0.00,VWS V14.01,2013-03-23 15:58:00,
2013-03-23 09:03:00,59.5,42.4,29.94,ENE,70,0.0,5.8,53,0.00,,BKN016,0.00,VWS V14.01,2013-03-23 16:03:00,
2013-03-23 09:09:00,60.2,42.6,29.94,NE,38,5.4,6.3,52,0.00,,BKN016,0.00,VWS V14.01,2013-03-23 16:09:00,
2013-03-23 09:14:00,60.2,40.5,29.94,SE,130,0.0,2.7,48,0.00,,BKN016,0.00,VWS V14.01,2013-03-23 16:14:00,
2013-03-23 09:20:00,60.8,40.4,29.97,ENE,59,2.7,2.7,47,0.00,,BKN016,0.00,VWS V14.01,2013-03-23 16:20:00,
2013-03-23 09:25:00,61.3,40.4,29.97,ENE,58,3.6,4.9,46,0.00,,BKN016,0.00,VWS V14.01,2013-03-23 16:25:00,
2013-03-23 09:30:00,60.6,38.6,29.97,ESE,113,2.7,2.7,44,0.00,,BKN016,0.00,VWS V14.01,2013-03-23 16:30:00,
2013-03-23 09:35:00,61.0,39.5,29.97,SSE,157,0.0,0.0,45,0.00,,BKN016,0.00,VWS V14.01,2013-03-23 16:35:00,
2013-03-23 09:41:00,61.0,38.9,29.97,SE,138,0.0,3.1,44,0.00,,BKN016,0.00,VWS V14.01,2013-03-23 16:41:00,
2013-03-23 09:46:00,61.5,39.4,29.97,South,189,2.7,2.7,44,0.00,,BKN016,0.00,VWS V14.01,2013-03-23 16:46:00,
2013-03-23 09:51:00,62.4,39.6,29.97,ENE,60,3.6,4.0,43,0.00,,BKN016,0.00,VWS V14.01,2013-03-23 16:51:00,
2013-03-23 09:57:00,63.3,39.2,29.97,NE,48,0.0,0.0,41,0.00,,BKN016,0.00,VWS V14.01,2013-03-23 16:57:00,
2013-03-23 10:03:00,64.0,38.6,29.97,East,81,2.7,4.9,39,0.00,,BKN016,0.00,VWS V14.01,2013-03-23 17:03:00,
2013-03-23 10:08:00,64.2,37.4,29.97,SE,131,2.7,4.0,37,0.00,,BKN016,0.00,VWS V14.01,2013-03-23 17:08:00,
2013-03-23 10:13:00,64.4,36.9,29.97,SE,136,4.0,4.0,36,0.00,,BKN016,0.00,VWS V14.01,2013-03-23 17:13:00,
2013-03-23 10:19:00,64.6,37.0,29.97,SSE,147,2.7,3.6,36,0.00,,BKN016,0.00,VWS V14.01,2013-03-23 17:19:00,
2013-03-23 10:24:00,64.9,37.3,29.97,SE,126,3.6,6.3,36,0.00,,BKN016,0.00,VWS V14.01,2013-03-23 17:24:00,
2013-03-23 10:30:00,66.0,36.8,29.97,SE,124,3.6,4.0,34,0.00,,BKN016,0.00,VWS V14.01,2013-03-23 17:30:00,
2013-03-23 10:35:00,66.0,36.1,29.97,ESE,120,5.8,5.8,33,0.00,,SCT018,0.00,VWS V14.01,2013-03-23 17:35:00,
2013-03-23 10:41:00,66.4,36.4,29.97,SSE,154,3.6,3.6,33,0.00,,SCT018,0.00,VWS V14.01,2013-03-23 17:41:00,
2013-03-23 10:47:00,66.7,36.7,29.97,ENE,77,5.4,5.4,33,0.00,,SCT018,0.00,VWS V14.01,2013-03-23 17:47:00,
2013-03-23 10:53:00,68.2,37.2,29.94,SE,140,0.0,4.9,32,0.00,,SCT018,0.00,VWS V14.01,2013-03-23 17:53:00,
2013-03-23 10:59:00,68.0,36.2,29.94,South,185,4.0,5.8,31,0.00,,SCT018,0.00,VWS V14.01,2013-03-23 17:59:00,
2013-03-23 11:05:00,68.5,35.0,29.94,SSE,152,2.7,2.7,29,0.00,,SCT018,0.00,VWS V14.01,2013-03-23 18:05:00,
2013-03-23 11:10:00,69.2,34.8,29.94,SSW,200,4.0,5.4,28,0.00,,SCT018,0.00,VWS V14.01,2013-03-23 18:10:00,
2013-03-23 11:16:00,70.1,34.6,29.94,SSW,194,4.0,4.9,27,0.00,,SCT018,0.00,VWS V14.01,2013-03-23 18:16:00,
2013-03-23 11:22:00,69.8,35.2,29.94,South,183,3.1,3.6,28,0.00,,SCT018,0.00,VWS V14.01,2013-03-23 18:22:00,
2013-03-23 11:27:00,68.0,34.6,29.94,WSW,254,6.3,8.7,29,0.00,,SCT018,0.00,VWS V14.01,2013-03-23 18:27:00,
2013-03-23 11:33:00,67.6,37.5,29.94,SW,221,6.3,8.1,33,0.00,,SCT018,0.00,VWS V14.01,2013-03-23 18:33:00,
2013-03-23 11:38:00,68.0,37.0,29.94,SW,225,5.8,6.3,32,0.00,,CLR,0.00,VWS V14.01,2013-03-23 18:38:00,
2013-03-23 11:43:00,68.9,37.8,29.94,SE,143,3.6,3.6,32,0.00,,CLR,0.00,VWS V14.01,2013-03-23 18:43:00,
2013-03-23 11:48:00,69.8,36.1,29.94,SSE,166,4.0,5.4,29,0.00,,CLR,0.00,VWS V14.01,2013-03-23 18:48:00,
2013-03-23 11:54:00,71.0,34.5,29.94,SSE,165,3.1,4.0,26,0.00,,CLR,0.00,VWS V14.01,2013-03-23 18:54:00,
2013-03-23 11:59:00,69.6,32.2,29.94,South,190,8.3,8.3,25,0.00,,CLR,0.00,VWS V14.01,2013-03-23 18:59:00,
2013-03-23 12:04:00,68.7,35.2,29.97,SSW,204,4.0,8.1,29,0.00,,CLR,0.00,VWS V14.01,2013-03-23 19:04:00,
2013-03-23 12:09:00,69.4,34.9,29.97,SSE,166,6.3,6.3,28,0.00,,CLR,0.00,VWS V14.01,2013-03-23 19:09:00,
2013-03-23 12:15:00,69.6,34.2,29.97,SSW,203,5.4,6.3,27,0.00,,CLR,0.00,VWS V14.01,2013-03-23 19:15:00,
2013-03-23 12:20:00,69.4,34.0,29.97,SSW,193,6.3,7.6,27,0.00,,CLR,0.00,VWS V14.01,2013-03-23 19:20:00,
2013-03-23 12:26:00,69.8,35.2,29.97,SSW,200,4.0,4.9,28,0.00,,CLR,0.00,VWS V14.01,2013-03-23 19:26:00,
2013-03-23 12:31:00,70.5,34.0,29.97,SE,145,5.8,8.1,26,0.00,,CLR,0.00,VWS V14.01,2013-03-23 19:31:00,
2013-03-23 12:37:00,70.3,34.8,29.97,SW,226,4.9,7.6,27,0.00,,CLR,0.00,VWS V14.01,2013-03-23 19:37:00,
2013-03-23 12:42:00,71.2,34.6,29.97,WSW,254,4.9,5.8,26,0.00,,CLR,0.00,VWS V14.01,2013-03-23 19:42:00,
2013-03-23 12:47:00,71.6,33.9,29.97,SSW,205,6.3,8.3,25,0.00,,CLR,0.00,VWS V14.01,2013-03-23 19:47:00,
2013-03-23 12:53:00,71.6,33.9,29.94,SSE,161,3.1,4.9,25,0.00,,CLR,0.00,VWS V14.01,2013-03-23 19:53:00,
2013-03-23 12:58:00,71.2,33.6,29.94,SSW,201,5.8,6.3,25,0.00,,CLR,0.00,VWS V14.01,2013-03-23 19:58:00,
2013-03-23 13:04:00,71.6,32.9,29.94,South,181,6.3,6.3,24,0.00,,CLR,0.00,VWS V14.01,2013-03-23 20:04:00,
2013-03-23 13:09:00,71.0,33.5,29.94,SSE,159,4.9,6.3,25,0.00,,CLR,0.00,VWS V14.01,2013-03-23 20:09:00,
2013-03-23 13:15:00,71.6,32.9,29.94,SSE,157,5.4,5.4,24,0.00,,CLR,0.00,VWS V14.01,2013-03-23 20:15:00,
2013-03-23 13:20:00,71.2,34.6,29.94,SSW,203,3.6,5.4,26,0.00,,CLR,0.00,VWS V14.01,2013-03-23 20:20:00,
2013-03-23 13:25:00,71.0,33.5,29.94,WSW,240,5.4,5.8,25,0.00,,CLR,0.00,VWS V14.01,2013-03-23 20:25:00,
2013-03-23 13:30:00,71.2,33.6,29.94,SSW,196,3.1,7.6,25,0.00,,CLR,0.00,VWS V14.01,2013-03-23 20:30:00,
2013-03-23 13:36:00,70.5,34.0,29.94,SSW,192,3.6,6.3,26,0.00,,CLR,0.00,VWS V14.01,2013-03-23 20:36:00,
2013-03-23 13:42:00,71.0,33.5,29.94,South,177,5.4,5.8,25,0.00,,CLR,0.00,VWS V14.01,2013-03-23 20:42:00,
2013-03-23 13:47:00,71.4,33.8,29.94,SSW,198,5.4,8.3,25,0.00,,CLR,0.00,VWS V14.01,2013-03-23 20:47:00,
2013-03-23 13:52:00,71.0,33.5,29.94,South,191,6.3,7.6,25,0.00,,CLR,0.00,VWS V14.01,2013-03-23 20:52:00,
2013-03-23 13:58:00,71.0,34.5,29.94,SSW,194,4.9,4.9,26,0.00,,CLR,0.00,VWS V14.01,2013-03-23 20:58:00,
2013-03-23 14:03:00,71.8,34.1,29.94,SE,146,5.4,5.8,25,0.00,,CLR,0.00,VWS V14.01,2013-03-23 21:03:00,
2013-03-23 14:08:00,71.4,33.8,29.94,SSE,160,5.4,8.1,25,0.00,,CLR,0.00,VWS V14.01,2013-03-23 21:08:00,
2013-03-23 14:13:00,70.9,34.3,29.94,SSW,205,5.8,5.8,26,0.00,,CLR,0.00,VWS V14.01,2013-03-23 21:13:00,
2013-03-23 14:18:00,71.0,34.5,29.91,SSE,156,4.0,6.3,26,0.00,,CLR,0.00,VWS V14.01,2013-03-23 21:18:00,
2013-03-23 14:24:00,71.4,33.8,29.91,SE,146,3.6,5.4,25,0.00,,CLR,0.00,VWS V14.01,2013-03-23 21:24:00,
2013-03-23 14:29:00,71.4,33.8,29.91,SW,230,4.0,7.2,25,0.00,,CLR,0.00,VWS V14.01,2013-03-23 21:29:00,
2013-03-23 14:35:00,71.6,33.9,29.91,SSE,151,5.4,5.8,25,0.00,,CLR,0.00,VWS V14.01,2013-03-23 21:35:00,
2013-03-23 14:40:00,71.9,34.2,29.91,SE,143,6.3,10.1,25,0.00,,CLR,0.00,VWS V14.01,2013-03-23 21:40:00,
2013-03-23 14:46:00,71.8,33.1,29.91,SSE,147,5.4,7.6,24,0.00,,CLR,0.00,VWS V14.01,2013-03-23 21:46:00,
2013-03-23 14:52:00,71.2,33.6,29.91,SSW,203,3.6,6.3,25,0.00,,CLR,0.00,VWS V14.01,2013-03-23 21:52:00,
2013-03-23 14:57:00,70.5,33.0,29.91,South,190,7.6,7.6,25,0.00,,CLR,0.00,VWS V14.01,2013-03-23 21:57:00,
2013-03-23 15:03:00,70.7,34.2,29.91,South,188,2.7,6.3,26,0.00,,CLR,0.00,VWS V14.01,2013-03-23 22:03:00,
2013-03-23 15:08:00,71.6,33.9,29.91,South,187,6.7,6.7,25,0.00,,CLR,0.00,VWS V14.01,2013-03-23 22:08:00,
2013-03-23 15:14:00,71.0,34.5,29.91,SSE,165,4.0,5.4,26,0.00,,CLR,0.00,VWS V14.01,2013-03-23 22:14:00,
2013-03-23 15:20:00,71.6,34.9,29.91,SSW,199,4.0,4.9,26,0.00,,CLR,0.00,VWS V14.01,2013-03-23 22:20:00,
2013-03-23 15:26:00,71.0,34.5,29.91,SSW,197,3.6,5.4,26,0.00,,CLR,0.00,VWS V14.01,2013-03-23 22:26:00,
2013-03-23 15:32:00,70.9,34.3,29.91,SW,229,3.6,7.6,26,0.00,,CLR,0.00,VWS V14.01,2013-03-23 22:32:00,
2013-03-23 15:37:00,70.7,33.2,29.91,SSE,159,7.6,8.3,25,0.00,,CLR,0.00,VWS V14.01,2013-03-23 22:37:00,
2013-03-23 15:42:00,70.9,34.3,29.91,South,191,6.3,6.7,26,0.00,,CLR,0.00,VWS V14.01,2013-03-23 22:42:00,
2013-03-23 15:48:00,70.7,34.2,29.91,SSE,167,4.0,7.2,26,0.00,,CLR,0.00,VWS V14.01,2013-03-23 22:48:00,
2013-03-23 15:53:00,70.1,33.7,29.91,SW,230,6.3,8.3,26,0.00,,CLR,0.00,VWS V14.01,2013-03-23 22:53:00,
2013-03-23 15:59:00,70.1,32.7,29.91,SSW,201,8.1,8.1,25,0.00,,CLR,0.00,VWS V14.01,2013-03-23 22:59:00,
2013-03-23 16:04:00,70.3,33.8,29.88,SE,142,5.4,6.3,26,0.00,,CLR,0.00,VWS V14.01,2013-03-23 23:04:00,
2013-03-23 16:09:00,70.3,33.8,29.88,South,189,5.4,5.8,26,0.00,,CLR,0.00,VWS V14.01,2013-03-23 23:09:00,
2013-03-23 16:14:00,70.1,33.7,29.88,SW,214,6.3,8.1,26,0.00,,CLR,0.00,VWS V14.01,2013-03-23 23:14:00,
2013-03-23 16:20:00,70.1,33.7,29.88,SSE,161,7.6,7.6,26,0.00,,CLR,0.00,VWS V14.01,2013-03-23 23:20:00,
2013-03-23 16:25:00,69.8,34.3,29.88,SSW,210,4.9,5.8,27,0.00,,CLR,0.00,VWS V14.01,2013-03-23 23:25:00,
2013-03-23 16:30:00,70.3,34.8,29.88,South,185,5.4,6.3,27,0.00,,CLR,0.00,VWS V14.01,2013-03-23 23:30:00,
2013-03-23 16:35:00,70.1,33.7,29.88,SW,214,2.7,4.9,26,0.00,,CLR,0.00,VWS V14.01,2013-03-23 23:35:00,
2013-03-23 16:41:00,70.3,34.8,29.88,South,176,8.7,8.7,27,0.00,,CLR,0.00,VWS V14.01,2013-03-23 23:41:00,
2013-03-23 16:46:00,70.0,34.5,29.88,SW,218,5.8,5.8,27,0.00,,CLR,0.00,VWS V14.01,2013-03-23 23:46:00,
2013-03-23 16:51:00,69.6,34.2,29.88,SSW,199,5.4,6.3,27,0.00,,CLR,0.00,VWS V14.01,2013-03-23 23:51:00,
2013-03-23 16:56:00,69.8,35.2,29.88,SW,233,6.3,6.3,28,0.00,,CLR,0.00,VWS V14.01,2013-03-23 23:56:00,
2013-03-23 17:01:00,69.4,35.8,29.88,SW,221,5.4,5.4,29,0.00,,CLR,0.00,VWS V14.01,2013-03-24 00:01:00,
2013-03-23 17:06:00,69.1,36.4,29.88,SSW,192,8.1,8.1,30,0.00,,CLR,0.00,VWS V14.01,2013-03-24 00:06:00,
2013-03-23 17:11:00,68.7,36.9,29.88,SSE,151,5.8,5.8,31,0.00,,CLR,0.00,VWS V14.01,2013-03-24 00:11:00,
2013-03-23 17:17:00,68.2,37.2,29.88,SSW,210,4.0,4.9,32,0.00,,CLR,0.00,VWS V14.01,2013-03-24 00:17:00,
2013-03-23 17:22:00,68.0,37.0,29.88,SSE,164,5.4,5.8,32,0.00,,CLR,0.00,VWS V14.01,2013-03-24 00:22:00,
2013-03-23 17:27:00,68.2,37.2,29.88,SSE,162,4.0,5.8,32,0.00,,CLR,0.00,VWS V14.01,2013-03-24 00:27:00,
2013-03-23 17:32:00,68.2,37.2,29.88,SSW,209,4.0,5.4,32,0.00,,CLR,0.00,VWS V14.01,2013-03-24 00:32:00,
2013-03-23 17:38:00,67.8,36.9,29.88,South,191,4.0,6.3,32,0.00,,CLR,0.00,VWS V14.01,2013-03-24 00:38:00,
2013-03-23 17:43:00,67.6,37.5,29.88,SSW,207,3.6,5.8,33,0.00,,CLR,0.00,VWS V14.01,2013-03-24 00:43:00,
2013-03-23 17:48:00,67.3,37.2,29.88,SSW,198,3.6,4.9,33,0.00,,CLR,0.00,VWS V14.01,2013-03-24 00:48:00,
2013-03-23 17:54:00,67.1,37.0,29.88,SSW,194,2.2,4.5,33,0.00,,CLR,0.00,VWS V14.01,2013-03-24 00:54:00,
2013-03-23 17:59:00,66.7,37.5,29.88,SSW,197,3.6,3.6,34,0.00,,CLR,0.00,VWS V14.01,2013-03-24 00:59:00,
2013-03-23 18:05:00,65.6,36.5,29.88,NW,318,5.8,6.3,34,0.00,,CLR,0.00,VWS V14.01,2013-03-24 01:05:00,
2013-03-23 18:10:00,65.3,37.0,29.88,West,281,8.3,10.1,35,0.00,,CLR,0.00,VWS V14.01,2013-03-24 01:10:00,
2013-03-23 18:16:00,65.1,37.5,29.88,West,271,5.4,6.3,36,0.00,,CLR,0.00,VWS V14.01,2013-03-24 01:16:00,
2013-03-23 18:21:00,65.1,37.5,29.88,West,279,6.3,6.3,36,0.00,,CLR,0.00,VWS V14.01,2013-03-24 01:21:00,
2013-03-23 18:27:00,64.9,37.3,29.88,WNW,302,5.8,6.3,36,0.00,,CLR,0.00,VWS V14.01,2013-03-24 01:27:00,
2013-03-23 18:33:00,64.9,37.3,29.91,WNW,295,3.6,3.6,36,0.00,,CLR,0.00,VWS V14.01,2013-03-24 01:33:00,
2013-03-23 18:38:00,64.7,35.8,29.91,West,276,2.7,5.4,34,0.00,,BKN200,0.00,VWS V14.01,2013-03-24 01:38:00,
2013-03-23 18:43:00,64.7,35.8,29.91,West,274,5.4,5.4,34,0.00,,BKN200,0.00,VWS V14.01,2013-03-24 01:43:00,
2013-03-23 18:48:00,64.0,35.8,29.91,WSW,253,3.1,5.4,35,0.00,,BKN200,0.00,VWS V14.01,2013-03-24 01:48:00,
2013-03-23 18:54:00,63.8,37.1,29.91,West,273,3.6,5.4,37,0.00,,BKN200,0.00,VWS V14.01,2013-03-24 01:54:00,
2013-03-23 18:59:00,63.7,36.9,29.91,WSW,251,5.4,5.4,37,0.00,,BKN200,0.00,VWS V14.01,2013-03-24 01:59:00,
2013-03-23 19:05:00,63.1,35.8,29.91,WNW,291,4.0,8.1,36,0.00,,BKN200,0.00,VWS V14.01,2013-03-24 02:05:00,
2013-03-23 19:10:00,62.8,36.1,29.91,West,270,4.9,6.3,37,0.00,,BKN200,0.00,VWS V14.01,2013-03-24 02:10:00,
2013-03-23 19:16:00,62.4,36.5,29.91,WNW,288,6.3,6.3,38,0.00,,BKN200,0.00,VWS V14.01,2013-03-24 02:16:00,
2013-03-23 19:21:00,62.2,37.6,29.91,WNW,294,5.4,5.8,40,0.00,,BKN200,0.00,VWS V14.01,2013-03-24 02:21:00,
2013-03-23 19:27:00,62.2,38.2,29.91,WNW,284,5.8,5.8,41,0.00,,BKN200,0.00,VWS V14.01,2013-03-24 02:27:00,
2013-03-23 19:33:00,62.0,38.7,29.91,WNW,293,3.6,4.0,42,0.00,,BKN200,0.00,VWS V14.01,2013-03-24 02:33:00,
2013-03-23 19:39:00,61.9,38.5,29.91,West,260,5.8,5.8,42,0.00,,CLR,0.00,VWS V14.01,2013-03-24 02:39:00,
2013-03-23 19:44:00,61.9,39.1,29.91,NW,319,3.6,4.0,43,0.00,,CLR,0.00,VWS V14.01,2013-03-24 02:44:00,
2013-03-23 19:50:00,61.7,39.6,29.91,WNW,290,3.6,3.6,44,0.00,,CLR,0.00,VWS V14.01,2013-03-24 02:50:00,
2013-03-23 19:55:00,61.5,40.0,29.91,WNW,283,2.7,4.0,45,0.00,,CLR,0.00,VWS V14.01,2013-03-24 02:55:00,
2013-03-23 20:01:00,61.5,40.5,29.91,WNW,302,5.4,5.4,46,0.00,,CLR,0.00,VWS V14.01,2013-03-24 03:01:00,
2013-03-23 20:06:00,61.5,41.1,29.91,WNW,282,3.6,3.6,47,0.00,,CLR,0.00,VWS V14.01,2013-03-24 03:06:00,
2013-03-23 20:12:00,61.3,40.9,29.91,WNW,299,2.7,4.0,47,0.00,,CLR,0.00,VWS V14.01,2013-03-24 03:12:00,
2013-03-23 20:17:00,61.1,40.8,29.91,NW,321,2.2,4.0,47,0.00,,CLR,0.00,VWS V14.01,2013-03-24 03:17:00,
2013-03-23 20:22:00,61.0,40.6,29.91,NW,312,4.9,5.4,47,0.00,,CLR,0.00,VWS V14.01,2013-03-24 03:22:00,
2013-03-23 20:28:00,60.8,39.9,29.91,NW,304,2.2,4.0,46,0.00,,CLR,0.00,VWS V14.01,2013-03-24 03:28:00,
2013-03-23 20:33:00,60.6,39.7,29.91,West,261,3.1,4.9,46,0.00,,CLR,0.00,VWS V14.01,2013-03-24 03:33:00,
2013-03-23 20:39:00,60.6,39.2,29.94,WNW,283,0.0,2.7,45,0.00,,CLR,0.00,VWS V14.01,2013-03-24 03:39:00,
2013-03-23 20:44:00,60.2,38.8,29.94,West,276,5.8,5.8,45,0.00,,CLR,0.00,VWS V14.01,2013-03-24 03:44:00,
2013-03-23 20:49:00,60.2,39.4,29.94,NW,305,3.6,4.9,46,0.00,,CLR,0.00,VWS V14.01,2013-03-24 03:49:00,
2013-03-23 20:54:00,60.2,39.4,29.94,NW,309,0.0,0.0,46,0.00,,CLR,0.00,VWS V14.01,2013-03-24 03:54:00,
2013-03-23 20:59:00,60.1,39.2,29.94,NW,311,2.7,3.1,46,0.00,,CLR,0.00,VWS V14.01,2013-03-24 03:59:00,
2013-03-23 21:00:00,60.1,39.2,29.94,NNW,331,3.6,3.6,46,0.00,,CLR,0.00,VWS V14.01,2013-03-24 04:00:00,
2013-03-23 21:01:00,60.1,39.8,29.94,NNW,344,2.7,3.6,47,0.00,,CLR,0.00,VWS V14.01,2013-03-24 04:01:00,
2013-03-23 21:02:00,60.1,39.8,29.94,North,349,3.6,4.0,47,0.00,,CLR,0.00,VWS V14.01,2013-03-24 04:02:00,
2013-03-23 21:05:00,59.9,39.6,29.94,NNW,342,3.6,4.5,47,0.00,,CLR,0.00,VWS V14.01,2013-03-24 04:05:00,
2013-03-23 21:10:00,59.9,40.2,29.94,NNW,338,3.6,3.6,48,0.00,,CLR,0.00,VWS V14.01,2013-03-24 04:10:00,
2013-03-23 21:15:00,59.7,40.0,29.94,NNW,330,2.7,4.0,48,0.00,,CLR,0.00,VWS V14.01,2013-03-24 04:15:00,
2013-03-23 21:20:00,59.5,40.4,29.94,NW,311,3.1,4.0,49,0.00,,CLR,0.00,VWS V14.01,2013-03-24 04:20:00,
2013-03-23 21:25:00,59.3,40.7,29.94,WNW,298,0.0,0.0,50,0.00,,CLR,0.00,VWS V14.01,2013-03-24 04:25:00,
2013-03-23 21:31:00,59.3,41.2,29.94,WSW,246,2.7,3.6,51,0.00,,CLR,0.00,VWS V14.01,2013-03-24 04:31:00,
2013-03-23 21:37:00,59.3,41.7,29.94,West,274,4.0,4.0,52,0.00,,CLR,0.00,VWS V14.01,2013-03-24 04:37:00,
2013-03-23 21:42:00,59.3,41.7,29.94,WNW,299,3.6,3.6,52,0.00,,CLR,0.00,VWS V14.01,2013-03-24 04:42:00,
2013-03-23 21:48:00,59.2,41.6,29.94,WNW,293,2.7,2.7,52,0.00,,CLR,0.00,VWS V14.01,2013-03-24 04:48:00,
2013-03-23 21:53:00,59.0,41.4,29.94,NW,312,0.0,2.7,52,0.00,,CLR,0.00,VWS V14.01,2013-03-24 04:53:00,
2013-03-23 21:59:00,58.8,41.2,29.94,NW,312,0.0,0.0,52,0.00,,CLR,0.00,VWS V14.01,2013-03-24 04:59:00,
2013-03-23 22:04:00,58.6,41.6,29.94,NW,312,0.0,0.0,53,0.00,,CLR,0.00,VWS V14.01,2013-03-24 05:04:00,
2013-03-23 22:10:00,58.4,41.4,29.94,NW,313,0.0,0.0,53,0.00,,CLR,0.00,VWS V14.01,2013-03-24 05:10:00,
2013-03-23 22:15:00,58.3,40.7,29.94,NW,313,0.0,0.0,52,0.00,,CLR,0.00,VWS V14.01,2013-03-24 05:15:00,
2013-03-23 22:21:00,58.1,41.1,29.97,NW,312,0.0,0.0,53,0.00,,CLR,0.00,VWS V14.01,2013-03-24 05:21:00,
2013-03-23 22:27:00,57.9,40.9,29.97,NW,312,0.0,0.0,53,0.00,,CLR,0.00,VWS V14.01,2013-03-24 05:27:00,
2013-03-23 22:32:00,57.7,40.7,29.97,NW,312,0.0,0.0,53,0.00,,CLR,0.00,VWS V14.01,2013-03-24 05:32:00,
2013-03-23 22:38:00,57.5,40.6,29.97,NW,312,0.0,0.0,53,0.00,,CLR,0.00,VWS V14.01,2013-03-24 05:38:00,
2013-03-23 22:44:00,57.4,40.4,29.97,NW,312,0.0,0.0,53,0.00,,CLR,0.00,VWS V14.01,2013-03-24 05:44:00,
2013-03-23 22:49:00,57.2,40.2,29.97,NW,312,0.0,0.0,53,0.00,,CLR,0.00,VWS V14.01,2013-03-24 05:49:00,
2013-03-23 22:55:00,57.0,40.1,29.97,NW,312,0.0,0.0,53,0.00,,CLR,0.00,VWS V14.01,2013-03-24 05:55:00,
2013-03-23 23:00:00,57.0,41.0,29.97,NW,312,0.0,0.0,55,0.00,,CLR,0.00,VWS V14.01,2013-03-24 06:00:00,
2013-03-23 23:06:00,56.6,40.7,29.97,NW,312,0.0,0.0,55,0.00,,CLR,0.00,VWS V14.01,2013-03-24 06:06:00,
2013-03-23 23:12:00,56.6,41.1,29.97,NW,313,0.0,0.0,56,0.00,,CLR,0.00,VWS V14.01,2013-03-24 06:12:00,
2013-03-23 23:17:00,56.5,41.0,29.97,NW,312,0.0,0.0,56,0.00,,CLR,0.00,VWS V14.01,2013-03-24 06:17:00,
2013-03-23 23:23:00,56.5,41.0,29.97,NW,313,0.0,0.0,56,0.00,,CLR,0.00,VWS V14.01,2013-03-24 06:23:00,
2013-03-23 23:28:00,56.1,40.6,29.97,NW,312,0.0,0.0,56,0.00,,CLR,0.00,VWS V14.01,2013-03-24 06:28:00,
2013-03-23 23:33:00,56.1,41.1,29.97,NW,312,0.0,0.0,57,0.00,,CLR,0.00,VWS V14.01,2013-03-24 06:33:00,
2013-03-23 23:38:00,55.9,40.9,29.94,NW,313,0.0,0.0,57,0.00,,CLR,0.00,VWS V14.01,2013-03-24 06:38:00,
2013-03-23 23:44:00,56.3,43.9,29.94,East,100,0.0,0.0,63,0.00,,CLR,0.00,VWS V14.01,2013-03-24 06:44:00,
2013-03-23 23:49:00,56.3,45.1,29.97,SE,137,0.0,0.0,66,0.00,,CLR,0.00,VWS V14.01,2013-03-24 06:49:00,
2013-03-23 23:54:00,56.1,44.9,29.97,SE,137,0.0,0.0,66,0.00,,CLR,0.00,VWS V14.01,2013-03-24 06:54:00,
2013-03-23 23:59:00,55.7,44.6,29.97,SE,137,0.0,0.0,66,0.00,,CLR,0.00,VWS V14.01,2013-03-24 06:59:00,